Flag for Lebanon Weather past 2 weeks in Beirut, Lebanon

Now
81 °F

Passing clouds.


Feels Like: 84 °F
Forecast: 78 / 83 °F
Wind: 7 mph from Southeast

Location: Beirut Airport

Current Time: Sep 2, 2014 at 2:39:07 AM

Latest Report: Sep 2, 2014 at 2:00 AM


Visibility: 5 mi

Pressure: 29.80 "Hg

Humidity: 70%

Dew point: 70 °F

Location of BeirutLocation

Historic Weather in Beirut — Graph

°F

Beirut temperature yesterday

Maximum temperature yesterday: 88 °F (at 10:00 AM)
Minimum temperature yesterday: 82 °F (at 4:00 AM)
Average temperature yesterday: 84 °F

Past Weeks' High & Low Weather Summary

 TemperatureHumidityPressure
High88 °F (Aug 18, 10:00 AM)84% (Aug 23, 11:00 PM)29.98 "Hg (Aug 23, 11:00 PM)
Low77 °F (Aug 20, 7:00 AM)49% (Aug 21, 4:00 PM)29.62 "Hg (Aug 18, 3:00 AM)
Average83 °F69%29.81 "Hg
* Reported Aug 18 1:00 AM — Sep 2 1:00 AM, Beirut, Weather by CustomWeather, © 2014

Note: Actual official high and low records may vary slightly from our data, if they occured in-between our weather recording intervals... More about our weather records

Advertising

Beirut weather history for previous 24 hours

 ConditionsComfort  
Time TempWeatherWind HumidityBarometerVisibility
1:00 AM
Sep 2
82 °FPassing clouds.9 mph66%29.80 "Hg5 mi
12:00 AM82 °FPassing clouds.12 mph66%29.80 "Hg5 mi
11:00 PM
Sep 1
82 °FPassing clouds.9 mph70%29.80 "Hg5 mi
10:00 PM82 °FPassing clouds.9 mph70%29.80 "Hg5 mi
9:00 PM82 °FPassing clouds.9 mph70%29.77 "Hg5 mi
8:00 PM82 °FPartly sunny.9 mph74%29.77 "Hg5 mi
7:00 PM84 °FFog.9 mph70%29.77 "Hg3 mi
6:00 PM82 °FFog.9 mph74%29.77 "Hg3 mi
5:00 PM84 °FPartly sunny.9 mph70%29.77 "Hg4 mi
4:00 PM84 °FPartly sunny.13 mph70%29.77 "Hg4 mi
3:00 PM84 °FPartly sunny.13 mph74%29.77 "Hg5 mi
2:00 PM86 °FOvercast.10 mph70%29.80 "Hg5 mi
1:00 PM86 °FPartly sunny.14 mph70%29.80 "Hg4 mi
12:00 PM88 °FPartly sunny.15 mph66%29.80 "Hg4 mi
11:00 AM88 °FPartly sunny.13 mph62%29.80 "Hg4 mi
10:00 AM88 °FPartly sunny.14 mph66%29.77 "Hg4 mi
9:00 AM86 °FScattered clouds.13 mph70%29.77 "Hg4 mi
8:00 AM84 °FScattered clouds.10 mph66%29.77 "Hg4 mi
7:00 AM82 °FPassing clouds.5 mph70%29.77 "Hg4 mi
6:00 AM82 °FFog.8 mph74%29.77 "Hg3 mi
5:00 AM82 °FFog.7 mph74%29.77 "Hg3 mi
4:00 AM82 °FFog.8 mph74%29.77 "Hg3 mi
3:00 AM84 °FFog.7 mph74%29.77 "Hg3 mi
2:00 AM84 °FFog.7 mph74%29.77 "Hg3 mi
Weather by CustomWeather, © 2014

See weather overviewHow to use our weather pages